timestamp,gas_concentrations,,corrected_fluxes_and_quality_flags,,,,,,,,,,storage_terms,,,turbulence,,,footprint,,
ISOdate,CO2_1_1_1,H2O_1_1_1,Tau_1_1_1,QcTau_1_1_1,H_1_1_1,QcH_1_1_1,LE_1_1_1, QcLE_1_1_1,Fc_1_1_1, QcFc_1_1_1,E_1_1_1, QcE_1_1_1,Sa_1_1_1,Sw_1_1_1,Sc_1_1_1,ustar_1_1_1,MO_length_1_1_1,ZL_1_1_1,Fetchmax_1_1_1,Fetch70_1_1_1,Fetch90_1_1_1
yyyymmddHHMM,[µmol+1mol_a-1],[mmol+1mol_a-1],[kg+1m-1s-2],[#],[W+1m-2],[#],[W+1m-2],[#],[µmol+1s-1m-2],[#],[mmol+1s-1m-2],[#],[W+1m-2],[W+1m-2],[µmol+1s-1m-2],[m+1s-1],[m],[#],[m],[m],[m]
201406110030,388.08971015720681,12.006953527880846,8.30246416627178074E-002,0,-43.707016410069961,0,6.4725869814419612,1,2.4954678689798100,0,0.14549615532660806,1,-9999.,-9999.,-9999.,0.26919711866581708,37.435427900727461,0.57699353824082400,110.57673744757173,202.16954269575305,302.88681507233389
201406110100,385.01689731735866,11.222107837878692,7.91929758011406804E-002,0,-45.120882173204919,0,38.784061953753117,0,4.6764655043224836,0,0.87181208252749620,0,-0.21785626934146735,-26.972466973949590,-2.3737888903837616,0.26289220859607620,33.764756851669226,0.63972028866934261,112.81175142784510,206.25586107284136,309.00886462591296
201406110130,383.47440704819297,10.801255292519395,1.96906645138544452E-002,0,-17.351738190752098,0,16.616280699637958,0,2.0205193134699746,0,0.37369792270777963,0,11.719253419578678,-14.429274934074526,-1.1893888061638498,0.13119949234391115,10.912496952049118,1.9793819961566188,763.22430329238159,7359.0000000000000,-9999.
201406110200,384.20620514210259,10.733610500591819,7.32620360649421098E-002,0,-54.975784658830804,0,45.182612604686639,0,5.5807116994926833,0,1.0159472759944819,0,-4.6968561562712541,-2.3213181847169961,0.56466570662512039,0.25298019371085140,24.691058484789924,0.87481061264772986,119.75111150989599,218.94322449821436,328.01684697743644
201406110230,387.71098106336058,10.996926113765078,2.52477096781063386E-002,0,-14.416445917865445,1,12.825106173271045,0,0.48983965337247370,2,0.28818570628424872,0,-15.607446207289051,9.0642650012740980,2.7109886955225395,0.14833583370672113,18.982709679722067,1.1378775930537359,459.03059552482574,4574.0000000000000,-9999.
201406110300,388.27064074585223,10.301891341051894,2.79753766813803590E-003,0,-3.0963462227170746,1,7.6417727582532118,1,0.34417503886807976,0,0.17174971907395889,1,4.8929690919523594,-23.905564984907397,0.43263177900698013,4.93858214419302666E-002,3.2615685878649492,6.6225803376833312,4275.2008002811281,-9999.,-9999.
201406110330,390.45519268938523,9.6659594348587579,3.08066791028165435E-002,0,-41.003370230535182,0,65.603589883884965,0,5.3976861259878381,0,1.4743948998380372,0,-0.84914449803114045,-21.871430797146957,1.6885548415461280,0.16387214527152336,8.9959661259770911,2.4010761820931079,506.30656631986034,4403.0000000000000,-9999.
201406110400,390.96484161497426,9.6400645120119020,8.64329993630308102E-002,0,-61.971496829262833,0,96.876084534880675,0,9.0816942992295502,0,2.1767014759244421,0,-5.6260146509984201,-0.89163120102597304,0.39429751796374601,0.27435967956124935,27.933941857985296,0.77325284450770593,109.94078604806975,201.00682071116748,301.14484566373852
201406110430,392.46707985843557,9.9111867260483439,3.84153272500906695E-002,0,-32.158045646592250,0,48.104185465904301,0,5.4604126413742380,0,1.0807404424931801,0,-2.3709779326771798,9.3428273119670724,1.1630290736619211,0.18285451752602341,15.940764036408140,1.3550166071504708,361.15025493703740,3362.0000000000000,-9999.
201406110500,388.24270229706906,9.3553708678527592,6.48317138037477272E-003,1,-17.248226693785337,1,29.125698065169718,0,5.7494037653474193,1,0.65485042837543472,0,17.678061975802539,-19.088741804729828,-3.2619317508564718,7.52092364013840914E-002,2.0680160808103443,10.444793055736842,1086.0921112609494,7756.0000000000000,-9999.
201406110530,380.97339838321699,9.3212857066168890,3.86502243683276500E-002,1,-24.830077713741449,1,52.831278766325504,1,5.1519710194356705,1,1.1893808153995653,1,30.289099075604938,-1.1632946008033924,-5.5853062637785715,0.18408975416628251,21.063153717155924,1.0254874597628187,194.38314863873208,1735.0000000000000,8352.0000000000000
201406110600,381.48167556419048,10.310661942549954,4.35700652687090600E-002,1,-7.5107246817026194,2,118.93259855190273,1,-1.6478792572098584,1,2.6787129391494302,1,10.472242493355004,33.697014731552606,0.38990233247657763,0.19564949268415627,83.607928070245705,0.25834870566164631,73.907381371985849,618.00000000000000,2827.0000000000000
201406110630,386.87619592029949,12.475636717047735,3.27448716232102699E-002,1,8.5403030637593780,0,62.750280573848258,0,-1.43283834839104118E-002,1,1.4147044411205676,0,22.671286372788742,73.406753903401253,4.1236904820016713,0.16997920746244186,-48.236895664107450,-0.44779001017000203,18.795868144259320,70.000000000000000,179.00000000000000
201406110700,382.20191654418340,11.636884110641988,6.89486358146378375E-002,1,42.710314473472700,0,175.98833274871328,1,-5.8783423489100670,0,3.9688869454829137,1,7.1800915253603863,-28.393952149634313,-3.5685474894871687,0.24677207473637264,-29.505943668914121,-0.73205589498757850,99.848066738871964,182.55411090622721,273.49932385196172
201406110730,375.16114710896471,10.493981246764235,0.21127817461786713,1,110.21409005320174,0,159.90663329743467,0,-14.941392504195539,0,3.6077206684823508,0,9.6461943246903399,-38.595841316041231,-5.3643578160530465,0.43232052323673004,-61.445729447421691,-0.35152971889580770,115.02998211528198,210.31149423786786,315.08494214024574
201406110800,371.51335770988402,11.641349631901827,0.33935994471150860,1,126.19419609321838,0,147.98982236264087,0,-16.196096913391166,0,3.3414018116005315,0,17.492217983347100,38.594956522235719,-2.7704753390497827,0.54889588299678427,-109.82340108038407,-0.19667939425942665,124.10482313814258,226.90319789975482,339.94233763000904
201406110830,374.65327110810733,11.953164046207908,0.20334742969968572,1,172.14703838350448,0,145.02747797369727,0,-13.879084883638697,0,3.2765014290167547,0,13.894409926575499,10.459170821407893,2.3794621755170429,0.42538918341548387,-37.474343085880847,-0.57639436001583177,103.83124539763988,189.83663186413122,284.40986729596887
201406110900,375.35961910589555,12.430255011738337,0.20044797371617376,1,177.92558389813718,0,167.12222833939234,0,-11.847441101349846,0,3.7781595900327534,0,15.055187693900544,15.955635079556144,0.53404481367419510,0.42287145067032317,-35.621466824167676,-0.60637592793751283,95.674726640622978,174.92391418807131,262.06789876427882
201406110930,374.93830041790886,12.576375734426755,0.22279813782194030,1,251.32320905878515,0,180.41470251928752,0,-15.866978585438865,0,4.0799777946832654,0,7.3460035960804291,4.8792567497065811,-0.31815478258798557,0.44610900396868480,-29.607627390538937,-0.72954173987282211,103.32093669906804,188.90362480853014,283.01205271053294
201406111000,375.31909847907787,13.121969726845762,0.37303541021571263,1,351.39060252322162,0,270.61218767885299,0,-20.089686892585760,0,6.1243611664668567,0,17.156696833661595,18.152295526312660,0.28672802556876992,0.57813786726142880,-46.088993684166404,-0.46865852936642771,114.75982689094904,209.81756432619767,314.34494512674956
201406111030,376.00463022277893,12.987474431007385,0.29879974791166986,1,287.99921088538241,0,212.63529467290076,0,-19.275639780041192,0,4.8133609426758701,0,5.2106497448037832,-4.4693255655398323,0.51567436582582815,0.51766538149134145,-40.363353557409567,-0.53513888456463132,109.26803536965873,199.77681790820813,299.30207732904904
201406111100,376.52449708469010,12.530385652765291,0.24753336210686089,1,345.26630423425451,0,175.20168659015363,0,-19.887061661661150,0,3.9679952098305726,0,11.467281352270980,-15.152790807815704,0.39031663396481386,0.47157382426469158,-25.448516037715951,-0.84877247726302552,95.569043118930907,174.73069100438775,261.77841522524682
201406111130,376.52760889485108,12.426419132523879,0.16418122243932298,1,327.05755875521561,0,218.91434723445130,0,-20.343003157796957,0,4.9596742189661907,0,7.6076364831402961,-3.4407098158275251,2.33317093495666230E-003,0.38431002771491618,-14.538800049015546,-1.4856796934532837,88.502277016790657,161.81038874022542,242.42144804620298
201406111200,377.00165206276534,12.399564779349602,0.10847382202688861,0,246.98801946137013,0,210.83625912973909,0,-21.158356074106869,0,4.7769053775236152,0,1.1663563761489433,-0.88816584752666616,0.35522097471996456,0.31246876188134975,-10.344888367175765,-2.0879877320413240,69.984607690519638,127.95418330408287,191.69868289448030
201406111230,378.33880849063860,12.061763023899839,0.30871408353465540,1,254.27390430574337,0,154.20613998657234,0,-14.407430251781138,0,3.4958706534259489,0,13.096896890700023,-11.139108673265550,0.99959584994780115,0.52773236759927833,-48.394159978451832,-0.44633484721333522,105.39239294194654,192.69090747759577,288.68609228205361
201406111300,377.61314715741099,12.134711369496712,0.20264090498943660,1,252.50831924429394,0,233.28094985382282,0,-17.801016460084561,0,5.2887615704158151,0,1.0903040643556190,2.4042454535439548,-0.54221565488063783,0.42766840307351439,-25.930562589722864,-0.83299388222918047,97.645254736439199,178.52666801492558,267.46548050460927
201406111330,377.60047262848821,12.078409830594401,0.32703335001986067,1,340.66558755016985,0,232.02324406214660,0,-22.752485806126330,0,5.2632664143863774,0,12.886580920333632,-1.8502309888811095,-9.44846743438034625E-003,0.54392528421382957,-39.532969870715327,-0.54637939093972654,104.42914082492179,190.92977539416870,286.04759550079672
201406111400,375.65334040391173,11.920393908247265,0.14851973218008155,1,76.144909128743578,0,186.87003661089625,0,-14.037469845960239,0,4.2382716091841210,0,-3.8669334630552261,-5.1961769117358152,-1.4522040278393702,0.36645524852376593,-54.080027805771081,-0.39940807866402361,94.997137882185442,173.68506583179700,260.21187817885260
201406111430,375.84477650113246,11.321881530640916,4.18588305569352545E-002,1,50.366110589649843,1,147.46413133736783,0,-12.532338706128133,0,3.3451412687325361,0,4.0804450206650404,-19.659755135029243,0.14264510273357836,0.19461335136018285,-12.242355487779674,-1.7643663444964601,57.193849818594963,177.00000000000000,394.00000000000000
201406111500,374.33277534442317,11.465703523923318,0.10127908826721302,0,-5.0131393626864584,1,119.63966269070953,0,-11.518890387028341,0,2.7134067402068647,0,-4.5689569211389243,4.7281142970288910,-1.1273389337593995,0.30263291687571414,462.49216385573891,4.67034940006842980E-002,131.24855900537722,239.96422544275720,359.51013692025856
201406111530,374.96848179819091,11.445772702198237,2.92290276686742005E-002,0,4.8096188521536760,1,116.14370885757704,1,-12.511560101973579,1,2.6360740858586582,1,16.615160935237526,-0.65301855338981807,0.47273619774771392,0.16279156016608323,-75.031881121608961,-0.28787762851089260,18.027492901363562,71.000000000000000,185.00000000000000
201406111600,374.97667792076550,11.422467735962584,2.71317358366148995E-002,1,-3.1373417567531234,1,56.955928436988252,1,-4.6482116463147669,0,1.2928295551950817,1,2.0822150184822301,-0.76312995394529437,6.09201274798776456E-003,0.15687961275220511,102.93154853548391,0.20984819821838943,0.48559897221277420,7.0000000000000000,-9999.
201406111630,371.59985208216887,12.752358041644023,0.22085867124081607,1,97.031510747497492,1,-24.429861946840045,2,-2.0742862422975694,1,-0.55424718805897843,2,-11.351088131086371,43.644607596456723,-2.5142353071629637,0.44732399472118162,-77.168528794046694,-0.27990685241191710,133.75697184003377,244.55040412175029,366.38106829256384
201406111700,367.41620989543111,14.146038080065262,0.30324061051365497,0,102.39921419097595,0,107.03599052459347,0,-10.300774731651630,0,2.4260169416367603,0,-21.698316223115377,45.932292340477218,-3.1251694565269110,0.52343502380814388,-117.17650048101420,-0.18433730237147500,122.79646005711631,224.51109290663635,336.35852845171632
201406111730,368.19079372052420,13.948401777465918,0.28697066773010593,0,53.177483118761579,0,99.618254437440115,0,-7.4482400939780584,0,2.2578171710001649,0,-0.73409210506026346,-6.5132586436343809,0.57856195484996165,0.50920227074319113,-207.68965612233367,-0.10400132776606427,134.70073845481357,246.27591049249142,368.96619126436241
201406111800,368.38282011250584,13.772284841575754,0.23787703519481049,0,41.090078581582958,0,105.57843336419711,0,-6.7429981340764051,0,2.3937747825050240,0,8.1928558623117809,-5.7928951906689603,0.14320676892628742,0.46395163641178111,-203.26122767660183,-0.10626719245426687,123.88099837784546,226.49397485268571,339.32924693529702
201406111830,368.82254139163223,13.527393991829735,0.27744620354687360,0,19.998856567574620,0,77.537905758502703,0,-3.8676063165752002,0,1.7572367696902575,0,-9.9482224576420357,-8.0701661928820787,0.32840035523995598,0.50067266108590824,-524.77444789277217,-4.11605406603439625E-002,117.45814919285711,214.75095807984459,321.73606795175687
201406111900,369.51015028186794,13.488086150403428,0.20387834852945422,0,-1.6495977144643541,2,95.542933716568939,0,-2.9656448099932775,1,2.1642062418388628,0,-11.229150172302999,-1.2979336210448016,0.51429800879429077,0.42886754494657775,3997.7918574080845,5.40298263902215178E-003,115.98572598984062,212.05889885943577,317.70287268216663
201406111930,371.71477733544816,13.342572412001482,0.12408139938906985,0,-32.212494867459462,0,47.949588838733867,0,1.7340381752204641,1,1.0850661503530241,0,-22.365532996081061,-4.8259022680418715,1.6545541475494752,0.33399711416745520,96.690805853352998,0.22339249124430549,115.79436776668584,211.70903499693378,317.17871286259572
201406112000,377.07392687755043,13.451668500639956,8.46790210531194881E-002,0,-28.450350721206952,0,36.231096408719758,0,5.3574151791325013,0,0.81898349064884424,0,-25.040860819597825,3.6363339684525458,4.0377937259103351,0.27538170869046447,61.362811813837020,0.35200472992551662,115.55757313025755,211.27609887976712,316.53009566779036
201406112030,376.29922705484506,13.054073183350274,3.16126295513430577E-002,0,-15.783732636473605,0,-7.5233373868129130,1,-9.63054392645791291E-002,0,-0.17000751181671875,1,-7.1489900466629566,-13.274519042271276,-0.58447853113286696,0.16813233687378562,25.175227380342676,0.85798629238462076,277.95969412301702,2676.0000000000000,-9999.
201406112100,378.73516806716276,13.047697915092245,0.47711460365935277,0,-77.944504192180261,0,14.173549004235213,0,2.8434188797697675,0,0.32024410248427249,0,-2.8939803381953353,-0.21303275767924876,1.8391503072995303,0.65294122868446502,298.64140087352763,7.23275471412198334E-002,121.57806887425760,222.28348523843331,333.02116624148414
201406112130,380.72310622770601,13.527788854341534,0.57845673126698971,0,-80.400139494699744,0,9.6261352803673610,1,5.2863947775084998,0,0.21734206560783639,1,-16.382764527582530,16.092054336113058,1.5044670509777760,0.71816315360159788,385.21208221319444,5.60730075648186652E-002,115.80006879520370,211.71945829531424,317.19432886294328
201406112200,382.15255386060812,13.665123918869352,0.38865813087828210,0,-58.493516144025413,0,8.8556364149351232,0,3.8477937242521070,0,0.19981793538421286,0,-14.654863725715069,4.6162341025910090,1.0841498868764483,0.58804729830093438,290.66070656941878,7.43134503969880567E-002,105.57962528284618,193.03322791145268,289.19895067092153
201406112230,383.38834335178439,13.466058446505045,0.67346770609624673,0,-63.218314813397690,0,25.552610281601275,0,6.1578234087189312,0,0.57619781111622637,0,-14.761250448188758,-6.7106036143593482,0.93939117997544053,0.77317871121428383,611.25460724859931,3.53371569618537162E-002,120.33807192859284,220.01637534501623,329.62462249963346
201406112300,383.94791809045495,13.426089757950352,0.57457555554854212,0,-41.645534347466707,0,-4.3457075430563483,2,3.5087388787302860,0,-9.79353027668216636E-002,2,-13.696813242607433,-1.3511590701762677,0.42630797528929604,0.71336218840839505,728.79691495273573,2.96378861611959685E-002,120.84400980246416,220.94139113906172,331.01046471906056
201406112330,384.71609722346534,13.748964546604878,0.57362045715960930,0,-48.201474051456351,0,-0.75829271109208052,2,5.2176223836732545,0,-1.70790105213816275E-002,2,-13.488029022916727,10.943841938613348,0.58644057022339857,0.71207773147276632,626.28977489623514,3.44888274817814616E-002,118.29688414164167,216.28443306701462,324.03349291826629
201406120000,385.75293020664714,13.983210453867338,0.43623970724574646,0,-44.622054737176605,0,0.40331690499286077,2,4.2912193160313041,0,9.07924317776200203E-003,2,-11.899010411610154,7.9587869538560758,0.79302502916782647,0.62042419571395913,447.49966706509133,4.82681923355669437E-002,113.88329785562765,208.21498969503264,311.94399630193186
